Cosmos 1300 Rocket - Orbit

View from above orbital plane
View from above orbital plane
View from above satellite
View from above satellite

Ground track
Ground track

The orbit data is extracted from the following two-line orbital elements,

1 12786U 81082B   13145.15139027  .00000488  00000-0  55865-4 0  5758
2 12786 082.4891 285.6401 0019460 111.2790 300.7308 14.83771883714671
Epoch (UTC): 25 May 2013 03:38:00
Eccentricity: 0.0019460
inclination: 82.4891°
perigee height: 604 km
apogee height: 631 km
right ascension of ascending node: 285.6401°
argument of perigee: 111.2790°
revolutions per day: 14.83771883
mean anomaly at epoch: 300.7308°
orbit number at epoch: 71467

The dashed part of the orbit path shows where the satellite is in the earth's shadow,  

Developed and maintained by Chris Peat, Heavens-Above GmbH. Please read the updated FAQ before sending e-mail. Imprint. DLR